PDT,Max TemperatureF,Mean TemperatureF,Min TemperatureF,Max Dew PointF,MeanDew PointF,Min DewpointF,Max Humidity, Mean Humidity, Min Humidity, Max Sea Level PressureIn, Mean Sea Level PressureIn, Min Sea Level PressureIn, Max VisibilityMiles, Mean VisibilityMiles, Min VisibilityMiles, Max Wind SpeedMPH, Mean Wind SpeedMPH, Max Gust SpeedMPH,PrecipitationIn, CloudCover, Events, WindDirDegrees
2013-5-1,86,77,64,,,,,,,30.06,30.00,29.97,20,19,10,13,7,,0.00,0,,337
2013-5-2,91,72,53,,,,,,,30.15,30.11,30.07,20,18,10,14,7,,0.00,0,,347
2013-5-3,89,70,51,,,,,,,30.02,29.92,29.82,20,20,20,14,6,,0.00,0,,343
2013-5-4,82,68,55,,,,,,,29.73,29.63,29.56,20,18,10,18,7,,0.00,0,,343
2013-5-5,73,66,60,,,,,,,29.76,29.71,29.66,20,18,15,21,13,24,0.00,4,,171
2013-5-6,69,64,60,32,32,32,26,26,26,29.91,29.87,29.85,20,19,10,14,9,,0.00,6,,333
2013-5-7,73,66,59,,,,,,,30.03,30.01,29.98,20,16,10,14,8,,0.00,5,,346
2013-5-8,66,60,55,,,,,,,30.13,30.11,30.09,20,13,10,21,10,,0.00,5,,335
2013-5-9,66,60,53,32,32,32,28,28,28,30.17,30.15,30.11,15,11,7,20,10,,0.00,3,,335
2013-5-10,64,60,55,,,,,,,30.20,30.17,30.13,20,11,7,20,11,25,0.00,4,,342
2013-5-11,77,66,55,32,32,32,22,22,22,30.12,30.10,30.06,15,9,7,17,7,,0.00,4,,354
2013-5-12,75,64,53,,,,,,,30.15,30.10,30.04,20,18,10,23,10,25,0.00,1,,347
2013-5-13,71,61,51,,,,,,,30.12,30.05,29.98,20,14,10,21,8,,0.00,1,,347
2013-5-14,73,64,55,,,,,,,30.01,29.98,29.96,20,14,10,21,12,,0.00,0,,328
2013-5-15,69,64,59,,,,,,,30.09,30.07,30.05,15,12,10,17,10,,0.00,3,,301
2013-5-16,71,65,57,,,,,,,30.06,30.03,30.00,20,12,10,17,8,,0.00,6,,308
2013-5-17,69,61,53,,,,,,,30.10,30.05,30.02,15,11,10,17,8,,0.00,1,,309
2013-5-18,75,60,46,,,,,,,30.15,30.12,30.10,20,16,10,17,7,,0.00,1,,326
2013-5-19,82,66,51,,,,,,,30.13,30.06,29.99,20,19,15,17,8,,0.00,0,,339
2013-5-20,91,76,60,,,,,,,30.01,29.97,29.93,13,12,10,17,8,,0.00,1,,338
2013-5-21,71,64,55,,,,,,,30.01,30.00,29.98,20,13,10,20,10,30,0.00,1,,303
2013-5-22,66,58,50,,,,,,,30.03,29.99,29.95,20,15,10,21,14,26,0.00,0,,310
2013-5-23,68,59,50,,,,,,,30.01,30.00,29.98,20,17,7,17,9,,0.00,1,,325
2013-5-24,73,60,46,,,,,,,30.02,30.00,29.96,20,14,10,18,8,23,0.00,0,,329
2013-5-25,66,57,48,43,43,43,45,45,45,30.06,30.03,29.98,20,16,10,17,7,23,0.00,2,,344
2013-5-26,73,65,57,,,,,,,30.13,30.11,30.09,15,13,10,16,11,,0.00,4,,312
2013-5-27,68,62,57,,,,,,,30.13,30.10,30.05,15,14,10,13,8,,0.00,8,,323
2013-5-28,69,64,60,,,,,,,30.01,29.98,29.94,20,11,10,21,9,28,0.00,4,,324
2013-5-29,71,65,59,,,,,,,29.98,29.96,29.93,15,15,15,18,9,,0.00,3,,313
2013-5-30,75,64,53,,,,,,,30.00,29.98,29.97,15,14,10,21,9,21,0.00,0,,338
2013-5-31,80,66,53,,,,,,,30.03,29.97,29.91,20,14,10,15,8,,0.00,0,,358